• Em Portugal
  • Lista de países
  • Para 7 dias
  • Temperatura da água
  • Mapas de satélite
  • Mapa do tempo
  • Widgets de tempo
  • user-avatar
    Iniciar Sessão

    Previsão horária em Ankara

    Hoje, 18 Junho, Segunda-feira

    Tempo Temperatura Precipitação Vento Pressão Humidade
    00:00 +17°C° 0 mm 2 m/s 681 mmHg 81%
    01:00 +16°C° 0 mm 1 m/s 681 mmHg 83%
    02:00 +16°C° 0 mm 1 m/s 681 mmHg 85%
    03:00 +16°C° 0 mm 1 m/s 681 mmHg 85%
    04:00 +16°C° 0 mm 1 m/s 681 mmHg 86%
    05:00 +15°C° 0 mm 1 m/s 681 mmHg 87%
    06:00 +18°C° 0 mm 1 m/s 681 mmHg 79%
    07:00 +19°C° 0 mm 1 m/s 681 mmHg 72%
    08:00 +21°C° 0 mm 1 m/s 681 mmHg 65%
    09:00 +21°C° 0,1 mm 2 m/s 681 mmHg 59%
    10:00 +23°C° 0,1 mm 2 m/s 681 mmHg 54%
    11:00 +25°C° 0,1 mm 2 m/s 681 mmHg 49%
    12:00 +26°C° 0,3 mm 3 m/s 681 mmHg 46%
    13:00 +26°C° 0,3 mm 3 m/s 681 mmHg 44%
    14:00 +27°C° 0,3 mm 3 m/s 681 mmHg 42%
    15:00 +27°C° 0,2 mm 3 m/s 681 mmHg 44%
    16:00 +26°C° 0,2 mm 4 m/s 681 mmHg 46%
    17:00 +26°C° 0,2 mm 4 m/s 681 mmHg 47%
    18:00 +24°C° 0,1 mm 3 m/s 681 mmHg 53%
    19:00 +22°C° 0,1 mm 3 m/s 681 mmHg 59%
    20:00 +21°C° 0,1 mm 2 m/s 681 mmHg 65%
    21:00 +20°C° 0 mm 2 m/s 681 mmHg 67%
    22:00 +19°C° 0 mm 2 m/s 681 mmHg 70%
    23:00 +18°C° 0 mm 2 m/s 682 mmHg 73%

    Amanhã, 19 Junho, Terça-feira

    Tempo Temperatura Precipitação Vento Pressão Humidade
    00:00 +19°C° 0 mm 1 m/s 682 mmHg 75%
    01:00 +18°C° 0 mm 1 m/s 682 mmHg 77%
    02:00 +18°C° 0 mm 1 m/s 682 mmHg 79%
    03:00 +18°C° 0 mm 1 m/s 682 mmHg 79%
    04:00 +18°C° 0 mm 1 m/s 682 mmHg 79%
    05:00 +18°C° 0 mm 1 m/s 682 mmHg 79%
    06:00 +19°C° 0 mm 1 m/s 682 mmHg 72%
    07:00 +21°C° 0 mm 1 m/s 683 mmHg 64%
    08:00 +23°C° 0 mm 1 m/s 683 mmHg 57%
    09:00 +24°C° 0 mm 1 m/s 683 mmHg 51%
    10:00 +26°C° 0 mm 1 m/s 684 mmHg 45%
    11:00 +27°C° 0 mm 1 m/s 684 mmHg 39%
    12:00 +28°C° 0 mm 1 m/s 683 mmHg 37%
    13:00 +28°C° 0 mm 1 m/s 683 mmHg 34%
    14:00 +29°C° 0 mm 1 m/s 683 mmHg 32%
    15:00 +29°C° 0,1 mm 1 m/s 683 mmHg 33%
    16:00 +29°C° 0,1 mm 2 m/s 683 mmHg 33%
    17:00 +29°C° 0,1 mm 2 m/s 683 mmHg 34%
    18:00 +27°C° 0,1 mm 3 m/s 683 mmHg 40%
    19:00 +26°C° 0,1 mm 3 m/s 683 mmHg 45%
    20:00 +24°C° 0,1 mm 3 m/s 683 mmHg 50%
    21:00 +22°C° 0,1 mm 3 m/s 683 mmHg 55%
    22:00 +21°C° 0,1 mm 3 m/s 683 mmHg 60%
    23:00 +20°C° 0,1 mm 3 m/s 683 mmHg 65%

    Depois de amanhã, 20 Junho, Quarta-feira

    Tempo Temperatura Precipitação Vento Pressão Humidade
    00:00 +20°C° 0,4 mm 2 m/s 683 mmHg 69%
    01:00 +19°C° 0,4 mm 2 m/s 683 mmHg 73%
    02:00 +19°C° 0,4 mm 2 m/s 683 mmHg 77%
    03:00 +19°C° 0,3 mm 2 m/s 683 mmHg 78%
    04:00 +18°C° 0,3 mm 2 m/s 683 mmHg 79%
    05:00 +18°C° 0,3 mm 2 m/s 683 mmHg 81%
    06:00 +20°C° 0,1 mm 2 m/s 684 mmHg 74%
    07:00 +21°C° 0,1 mm 2 m/s 684 mmHg 66%
    08:00 +24°C° 0,1 mm 2 m/s 685 mmHg 59%
    09:00 +25°C° 0,6 mm 2 m/s 685 mmHg 54%
    10:00 +26°C° 0,6 mm 2 m/s 685 mmHg 49%
    11:00 +27°C° 0,6 mm 2 m/s 685 mmHg 44%
    12:00 +28°C° 0,4 mm 2 m/s 685 mmHg 43%
    13:00 +28°C° 0,4 mm 2 m/s 685 mmHg 42%
    14:00 +29°C° 0,4 mm 2 m/s 685 mmHg 40%
    15:00 +28°C° 0,3 mm 2 m/s 685 mmHg 42%
    16:00 +28°C° 0,3 mm 2 m/s 685 mmHg 43%
    17:00 +28°C° 0,3 mm 3 m/s 685 mmHg 45%
    18:00 +27°C° 0,2 mm 3 m/s 685 mmHg 49%
    19:00 +25°C° 0,2 mm 3 m/s 685 mmHg 54%
    20:00 +24°C° 0,2 mm 3 m/s 685 mmHg 59%
    21:00 +22°C° 0,3 mm 3 m/s 685 mmHg 63%
    22:00 +21°C° 0,3 mm 2 m/s 685 mmHg 68%
    23:00 +20°C° 0,3 mm 2 m/s 685 mmHg 73%

    21 Junho, Quinta-feira

    Tempo Temperatura Precipitação Vento Pressão Humidade
    00:00 +20°C° 0,5 mm 2 m/s 685 mmHg 75%
    01:00 +19°C° 0,5 mm 2 m/s 685 mmHg 77%
    02:00 +19°C° 0,5 mm 2 m/s 685 mmHg 80%
    03:00 +19°C° 0,1 mm 2 m/s 685 mmHg 80%
    04:00 +19°C° 0,1 mm 2 m/s 685 mmHg 81%
    05:00 +19°C° 0,1 mm 1 m/s 684 mmHg 82%
    06:00 +20°C° 0 mm 2 m/s 685 mmHg 74%
    07:00 +23°C° 0 mm 2 m/s 685 mmHg 66%
    08:00 +24°C° 0 mm 2 m/s 685 mmHg 58%
    09:00 +25°C° 0,1 mm 2 m/s 685 mmHg 53%
    10:00 +27°C° 0,1 mm 2 m/s 685 mmHg 48%
    11:00 +28°C° 0,1 mm 2 m/s 685 mmHg 43%
    12:00 +28°C° 0,4 mm 1 m/s 685 mmHg 42%
    13:00 +29°C° 0,4 mm 1 m/s 685 mmHg 40%
    14:00 +29°C° 0,4 mm 1 m/s 684 mmHg 39%
    15:00 +28°C° 0,5 mm 2 m/s 684 mmHg 43%
    16:00 +28°C° 0,5 mm 2 m/s 684 mmHg 47%
    17:00 +27°C° 0,5 mm 3 m/s 684 mmHg 50%
    18:00 +25°C° 1,4 mm 3 m/s 684 mmHg 57%
    19:00 +24°C° 1,4 mm 3 m/s 683 mmHg 63%
    20:00 +22°C° 1,4 mm 3 m/s 683 mmHg 70%
    21:00 +21°C° 0,6 mm 2 m/s 683 mmHg 72%
    22:00 +21°C° 0,6 mm 2 m/s 684 mmHg 74%
    23:00 +21°C° 0,6 mm 1 m/s 684 mmHg 76%

    22 Junho, Sexta-feira

    Tempo Temperatura Precipitação Vento Pressão Humidade
    00:00 +21°C° 0 mm 1 m/s 683 mmHg 76%
    01:00 +20°C° 0 mm 1 m/s 683 mmHg 77%
    02:00 +20°C° 0 mm 1 m/s 683 mmHg 77%
    03:00 +20°C° 0 mm 1 m/s 683 mmHg 78%
    04:00 +20°C° 0 mm 1 m/s 683 mmHg 78%
    05:00 +20°C° 0 mm 1 m/s 683 mmHg 79%
    06:00 +21°C° 0 mm 1 m/s 683 mmHg 71%
    07:00 +23°C° 0 mm 2 m/s 683 mmHg 63%
    08:00 +24°C° 0 mm 3 m/s 684 mmHg 56%
    09:00 +25°C° 0,1 mm 3 m/s 684 mmHg 51%
    10:00 +27°C° 0,1 mm 4 m/s 684 mmHg 46%
    11:00 +28°C° 0,1 mm 4 m/s 684 mmHg 41%
    12:00 +28°C° 0 mm 4 m/s 684 mmHg 39%
    13:00 +29°C° 0 mm 5 m/s 683 mmHg 36%
    14:00 +29°C° 0 mm 5 m/s 683 mmHg 34%
    15:00 +29°C° 0 mm 5 m/s 683 mmHg 36%
    16:00 +28°C° 0 mm 5 m/s 683 mmHg 37%
    17:00 +28°C° 0 mm 5 m/s 683 mmHg 39%
    18:00 +26°C° 0 mm 4 m/s 683 mmHg 45%
    19:00 +25°C° 0 mm 3 m/s 683 mmHg 51%
    20:00 +22°C° 0 mm 3 m/s 683 mmHg 57%
    21:00 +22°C° 0 mm 3 m/s 683 mmHg 62%
    22:00 +21°C° 0 mm 2 m/s 683 mmHg 66%
    23:00 +20°C° 0 mm 2 m/s 683 mmHg 71%

    23 Junho, Sábado

    Tempo Temperatura Precipitação Vento Pressão Humidade
    00:00 +20°C° 0 mm 2 m/s 683 mmHg 74%
    01:00 +19°C° 0 mm 2 m/s 683 mmHg 76%
    02:00 +19°C° 0 mm 2 m/s 683 mmHg 79%
    03:00 +18°C° 0 mm 2 m/s 683 mmHg 80%
    04:00 +19°C° 0 mm 1 m/s 683 mmHg 81%
    05:00 +19°C° 0 mm 1 m/s 683 mmHg 81%
    06:00 +20°C° 0 mm 1 m/s 684 mmHg 73%
    07:00 +21°C° 0 mm 2 m/s 684 mmHg 64%
    08:00 +23°C° 0 mm 2 m/s 684 mmHg 56%
    09:00 +25°C° 0 mm 2 m/s 684 mmHg 51%
    10:00 +26°C° 0 mm 2 m/s 684 mmHg 46%
    11:00 +27°C° 0 mm 2 m/s 685 mmHg 42%
    12:00 +28°C° 0 mm 3 m/s 684 mmHg 40%
    13:00 +28°C° 0 mm 3 m/s 684 mmHg 39%
    14:00 +29°C° 0 mm 3 m/s 684 mmHg 37%
    15:00 +28°C° 0,2 mm 3 m/s 684 mmHg 39%
    16:00 +28°C° 0,2 mm 3 m/s 684 mmHg 42%
    17:00 +28°C° 0,2 mm 4 m/s 684 mmHg 44%
    18:00 +26°C° 0,1 mm 3 m/s 684 mmHg 50%
    19:00 +25°C° 0,1 mm 3 m/s 684 mmHg 55%
    20:00 +22°C° 0,1 mm 3 m/s 685 mmHg 61%
    21:00 +22°C° 0 mm 3 m/s 685 mmHg 64%
    22:00 +21°C° 0 mm 2 m/s 685 mmHg 66%
    23:00 +20°C° 0 mm 2 m/s 685 mmHg 69%
    Mostrar mais